KO4MMQ-10 Weather Reports


time (UTC)temp
C
wind
direction
speed
KPH
gust
KPH
rain 1hr
cm
rain 24hr
cm
rain mn
cm
humidity
%
barometer
mb
20260505054828 17 0 0.0 6.4 0.00 0.00 0.00 65 1010.2
20260505053829 17 269 1.6 3.2 0.00 0.00 0.00 65 1010.2
20260505052828 17 0 0.0 1.6 0.00 0.00 0.00 64 1010.1
20260505051829 18 0 0.0 1.6 0.00 0.00 0.00 64 1010.3
20260505050828 18 0 0.0 0.0 0.00 0.00 0.00 63 1010.4
20260505040827 19 0 0.0 1.6 0.00 0.00 0.00 59 1010.5
20260505035828 19 0 0.0 6.4 0.00 0.00 0.00 58 1010.5
20260505034828 20 0 0.0 3.2 0.00 0.00 0.00 58 1010.3
20260505033828 20 252 3.2 4.8 0.00 0.00 0.00 57 1010.4
20260505032828 20 0 0.0 9.7 0.00 0.00 0.00 57 1010.4
20260505031828 20 208 1.6 8.0 0.00 0.00 0.00 58 1010.3
20260505030828 20 0 0.0 3.2 0.00 0.00 0.00 58 1010.3
20260505024828 20 0 0.0 1.6 0.00 0.00 0.00 58 1010.1
20260505023828 20 231 1.6 1.6 0.00 0.00 0.00 57 1010.1
20260505022828 20 0 0.0 1.6 0.00 0.00 0.00 57 1010.2
20260505020829 20 0 0.0 1.6 0.00 0.00 0.00 55 1010.0
20260505015828 20 0 0.0 0.0 0.00 0.00 0.00 54 1009.9
20260505014827 20 0 0.0 3.2 0.00 0.00 0.00 54 1009.8
20260505013829 21 0 0.0 3.2 0.00 0.00 0.00 53 1009.8
20260505012828 21 0 0.0 1.6 0.00 0.00 0.00 52 1009.8
20260505011828 21 0 0.0 1.6 0.00 0.00 0.00 51 1009.8
20260505010828 21 0 0.0 0.0 0.00 0.00 0.00 49 1010.0
20260505005827 22 0 0.0 3.2 0.00 0.00 0.00 48 1009.9
20260505004828 22 0 0.0 6.4 0.00 0.00 0.00 47 1009.8
20260505003828 22 138 3.2 14.5 0.00 0.00 0.00 46 1009.7
20260505002827 22 182 1.6 3.2 0.00 0.00 0.00 46 1009.8
20260505000828 23 0 0.0 8.0 0.00 0.00 0.00 45 1009.9
20260504235827 23 0 0.0 8.0 0.00 0.00 0.00 44 1009.9
20260504234828 24 139 1.6 11.3 0.00 0.00 0.00 43 1009.8
20260504233828 25 156 4.8 11.3 0.00 0.00 0.00 42 1009.9
20260504231827 25 199 3.2 6.4 0.00 0.00 0.00 40 1009.8
20260504230828 26 208 3.2 14.5 0.00 0.00 0.00 40 1009.9
20260504225828 26 139 9.7 16.1 0.00 0.00 0.00 40 1009.9
20260504224827 26 261 6.4 16.1 0.00 0.00 0.00 39 1009.7
20260504223827 26 179 9.7 14.5 0.00 0.00 0.00 39 1009.8
20260504221828 26 254 1.6 16.1 0.00 0.00 0.00 39 1009.7
20260504214828 26 227 11.3 14.5 0.00 0.00 0.00 38 1009.9
20260504212827 26 170 1.6 12.9 0.00 0.00 0.00 39 1009.7
20260504210828 27 150 9.7 11.3 0.00 0.00 0.00 39 1010.2
20260504204827 26 205 8.0 14.5 0.00 0.00 0.00 37 1010.2
20260504202828 27 181 6.4 9.7 0.00 0.00 0.00 39 1010.6
20260504200828 26 0 0.0 22.5 0.00 0.00 0.00 40 1010.8
20260504195827 26 245 6.4 22.5 0.00 0.00 0.00 39 1011.0
20260504194827 26 226 3.2 14.5 0.00 0.00 0.00 38 1011.2
20260504193827 27 252 4.8 6.4 0.00 0.00 0.00 41 1011.2
20260504191827 26 145 1.6 17.7 0.00 0.00 0.00 37 1011.4
20260504184827 26 248 3.2 8.0 0.00 0.00 0.00 38 1011.8
20260504182828 26 236 6.4 20.9 0.00 0.00 0.00 41 1012.3
20260504181827 26 109 3.2 8.0 0.00 0.00 0.00 42 1012.4
20260504175827 26 217 6.4 8.0 0.00 0.00 0.00 45 1012.6
20260504173828 26 120 8.0 12.9 0.00 0.00 0.00 43 1012.9
20260504171827 25 274 3.2 19.3 0.00 0.00 0.00 45 1013.1
20260504170828 25 63 4.8 17.7 0.00 0.00 0.00 45 1013.2
20260504150828 21 147 6.4 9.7 0.00 0.00 0.00 62 1014.0
20260504140827 18 0 0.0 6.4 0.00 0.00 0.00 69 1014.2
20260504080828 15 0 0.0 4.8 0.00 0.00 0.00 69 1013.7